Time,TemperatureF,DewpointF,PressureIn,WindDirection,WindDirectionDegrees,WindSpeedMPH,WindSpeedGustMPH,Humidity,HourlyPrecipIn,Conditions,Clouds,dailyrainin,SoftwareType,DateUTC
2013-08-17 00:00:00,71.1,59.6,30.19,North,360,0.0,0.0,67,0.00,,,0.00,Wunderground v.1.15,2013-08-17 04:00:00,
2013-08-17 00:01:00,71.0,59.5,30.19,North,360,0.0,0.0,67,0.00,,,0.00,Wunderground v.1.15,2013-08-17 04:01:00,
2013-08-17 00:04:00,71.0,59.5,30.19,North,360,0.0,0.0,67,0.00,,,0.00,Wunderground v.1.15,2013-08-17 04:04:00,
2013-08-17 00:09:00,70.8,59.7,30.19,North,360,0.0,0.0,68,0.00,,,0.00,Wunderground v.1.15,2013-08-17 04:09:00,
2013-08-17 00:11:00,70.7,59.6,30.19,North,360,0.0,0.0,68,0.00,,,0.00,Wunderground v.1.15,2013-08-17 04:11:00,
2013-08-17 00:13:00,70.6,59.5,30.19,North,360,0.0,0.0,68,0.00,,,0.00,Wunderground v.1.15,2013-08-17 04:13:00,
2013-08-17 00:17:00,70.6,59.5,30.19,North,360,0.0,2.0,68,0.00,,,0.00,Wunderground v.1.15,2013-08-17 04:17:00,
2013-08-17 00:21:00,70.7,59.6,30.19,North,360,0.0,0.0,68,0.00,,,0.00,Wunderground v.1.15,2013-08-17 04:21:00,
2013-08-17 00:25:00,70.7,59.6,30.19,North,360,0.0,0.0,68,0.00,,,0.00,Wunderground v.1.15,2013-08-17 04:25:00,
2013-08-17 00:29:00,70.5,59.8,30.20,North,360,0.0,0.0,69,0.00,,,0.00,Wunderground v.1.15,2013-08-17 04:29:00,
2013-08-17 00:31:00,70.4,59.7,30.20,North,360,0.0,0.0,69,0.00,,,0.00,Wunderground v.1.15,2013-08-17 04:31:00,
2013-08-17 00:37:00,70.1,59.9,30.20,North,360,0.0,0.0,70,0.00,,,0.00,Wunderground v.1.15,2013-08-17 04:37:00,
2013-08-17 00:39:00,70.0,59.8,30.20,North,360,0.0,0.0,70,0.00,,,0.00,Wunderground v.1.15,2013-08-17 04:39:00,
2013-08-17 00:41:00,69.9,59.7,30.19,North,360,0.0,1.0,70,0.00,,,0.00,Wunderground v.1.15,2013-08-17 04:41:00,
2013-08-17 00:45:00,69.7,59.9,30.20,North,360,1.0,2.0,71,0.00,,,0.00,Wunderground v.1.15,2013-08-17 04:45:00,
2013-08-17 00:47:00,69.6,59.8,30.20,North,360,1.0,2.0,71,0.00,,,0.00,Wunderground v.1.15,2013-08-17 04:47:00,
2013-08-17 00:49:00,69.6,60.2,30.20,North,360,1.0,1.0,72,0.00,,,0.00,Wunderground v.1.15,2013-08-17 04:49:00,
2013-08-17 00:53:00,69.6,60.2,30.20,North,360,1.0,1.0,72,0.00,,,0.00,Wunderground v.1.15,2013-08-17 04:53:00,
2013-08-17 00:55:00,69.6,60.2,30.19,North,360,1.0,1.0,72,0.00,,,0.00,Wunderground v.1.15,2013-08-17 04:55:00,
2013-08-17 00:57:00,69.5,60.1,30.19,North,360,0.0,1.0,72,0.00,,,0.00,Wunderground v.1.15,2013-08-17 04:57:00,
2013-08-17 01:01:00,69.4,60.4,30.19,North,360,1.0,4.0,73,0.00,,,0.00,Wunderground v.1.15,2013-08-17 05:01:00,
2013-08-17 01:04:00,69.4,60.4,30.19,North,360,1.0,4.0,73,0.00,,,0.00,Wunderground v.1.15,2013-08-17 05:04:00,
2013-08-17 01:05:00,69.4,60.4,30.19,North,360,2.0,4.0,73,0.00,,,0.00,Wunderground v.1.15,2013-08-17 05:05:00,
2013-08-17 01:09:00,69.5,60.5,30.20,North,360,2.0,2.0,73,0.00,,,0.00,Wunderground v.1.15,2013-08-17 05:09:00,
2013-08-17 01:13:00,69.6,60.6,30.20,North,360,1.0,2.0,73,0.00,,,0.00,Wunderground v.1.15,2013-08-17 05:13:00,
2013-08-17 01:15:00,69.5,60.5,30.20,North,360,0.0,2.0,73,0.00,,,0.00,Wunderground v.1.15,2013-08-17 05:15:00,
2013-08-17 01:19:00,69.4,60.4,30.20,North,360,1.0,1.0,73,0.00,,,0.00,Wunderground v.1.15,2013-08-17 05:19:00,
2013-08-17 01:21:00,69.4,60.4,30.20,North,360,1.0,1.0,73,0.00,,,0.00,Wunderground v.1.15,2013-08-17 05:21:00,
2013-08-17 01:25:00,69.3,60.3,30.19,North,360,1.0,1.0,73,0.00,,,0.00,Wunderground v.1.15,2013-08-17 05:25:00,
2013-08-17 01:27:00,69.3,60.3,30.19,North,360,0.0,1.0,73,0.00,,,0.00,Wunderground v.1.15,2013-08-17 05:27:00,
2013-08-17 01:29:00,69.4,60.4,30.19,North,360,0.0,0.0,73,0.00,,,0.00,Wunderground v.1.15,2013-08-17 05:29:00,
2013-08-17 01:34:00,69.4,60.4,30.19,North,360,0.0,0.0,73,0.00,,,0.00,Wunderground v.1.15,2013-08-17 05:34:00,
2013-08-17 01:35:00,69.4,60.4,30.18,North,360,0.0,0.0,73,0.00,,,0.00,Wunderground v.1.15,2013-08-17 05:35:00,
2013-08-17 01:41:00,69.4,60.4,30.18,North,360,1.0,3.0,73,0.00,,,0.00,Wunderground v.1.15,2013-08-17 05:41:00,
2013-08-17 01:45:00,69.5,60.5,30.18,North,360,1.0,3.0,73,0.00,,,0.00,Wunderground v.1.15,2013-08-17 05:45:00,
2013-08-17 01:47:00,69.6,60.6,30.18,North,360,2.0,3.0,73,0.00,,,0.00,Wunderground v.1.15,2013-08-17 05:47:00,
2013-08-17 01:49:00,69.6,60.6,30.19,North,360,2.0,2.0,73,0.00,,,0.00,Wunderground v.1.15,2013-08-17 05:49:00,
2013-08-17 01:51:00,69.6,60.6,30.19,North,360,1.0,2.0,73,0.00,,,0.00,Wunderground v.1.15,2013-08-17 05:51:00,
2013-08-17 01:55:00,69.6,60.6,30.19,North,360,0.0,2.0,73,0.00,,,0.00,Wunderground v.1.15,2013-08-17 05:55:00,
2013-08-17 01:57:00,69.5,60.5,30.19,North,360,0.0,2.0,73,0.00,,,0.00,Wunderground v.1.15,2013-08-17 05:57:00,
2013-08-17 01:59:00,69.4,60.4,30.19,North,360,0.0,0.0,73,0.00,,,0.00,Wunderground v.1.15,2013-08-17 05:59:00,
2013-08-17 02:01:00,69.3,60.3,30.19,North,360,0.0,0.0,73,0.00,,,0.00,Wunderground v.1.15,2013-08-17 06:01:00,
2013-08-17 02:04:00,69.2,60.2,30.19,North,360,0.0,0.0,73,0.00,,,0.00,Wunderground v.1.15,2013-08-17 06:04:00,
2013-08-17 02:07:00,69.1,60.5,30.19,North,360,0.0,0.0,74,0.00,,,0.00,Wunderground v.1.15,2013-08-17 06:07:00,
2013-08-17 02:09:00,69.0,60.4,30.20,North,360,0.0,0.0,74,0.00,,,0.00,Wunderground v.1.15,2013-08-17 06:09:00,
2013-08-17 02:11:00,69.0,60.4,30.19,North,360,0.0,0.0,74,0.00,,,0.00,Wunderground v.1.15,2013-08-17 06:11:00,
2013-08-17 02:13:00,68.9,60.3,30.19,North,360,0.0,0.0,74,0.00,,,0.00,Wunderground v.1.15,2013-08-17 06:13:00,
2013-08-17 02:17:00,68.8,60.2,30.19,North,360,0.0,0.0,74,0.00,,,0.00,Wunderground v.1.15,2013-08-17 06:17:00,
2013-08-17 02:21:00,68.8,60.2,30.19,North,360,0.0,0.0,74,0.00,,,0.00,Wunderground v.1.15,2013-08-17 06:21:00,
2013-08-17 02:25:00,68.7,60.1,30.19,North,360,0.0,0.0,74,0.00,,,0.00,Wunderground v.1.15,2013-08-17 06:25:00,
2013-08-17 02:27:00,68.7,60.1,30.19,North,360,0.0,0.0,74,0.00,,,0.00,Wunderground v.1.15,2013-08-17 06:27:00,
2013-08-17 02:31:00,68.6,60.0,30.19,North,360,0.0,0.0,74,0.00,,,0.00,Wunderground v.1.15,2013-08-17 06:31:00,
2013-08-17 02:33:00,68.5,59.9,30.19,North,360,0.0,0.0,74,0.00,,,0.00,Wunderground v.1.15,2013-08-17 06:33:00,
2013-08-17 02:35:00,68.4,59.8,30.19,North,360,0.0,0.0,74,0.00,,,0.00,Wunderground v.1.15,2013-08-17 06:35:00,
2013-08-17 02:41:00,68.1,59.9,30.19,North,360,0.0,0.0,75,0.00,,,0.00,Wunderground v.1.15,2013-08-17 06:41:00,
2013-08-17 02:43:00,68.1,59.9,30.19,North,360,0.0,0.0,75,0.00,,,0.00,Wunderground v.1.15,2013-08-17 06:43:00,
2013-08-17 02:45:00,68.1,59.9,30.19,North,360,0.0,0.0,75,0.00,,,0.00,Wunderground v.1.15,2013-08-17 06:45:00,
2013-08-17 02:47:00,68.0,60.2,30.19,North,360,0.0,0.0,76,0.00,,,0.00,Wunderground v.1.15,2013-08-17 06:47:00,
2013-08-17 02:49:00,67.9,59.7,30.19,North,360,0.0,0.0,75,0.00,,,0.00,Wunderground v.1.15,2013-08-17 06:49:00,
2013-08-17 02:51:00,67.9,59.7,30.19,North,360,0.0,2.0,75,0.00,,,0.00,Wunderground v.1.15,2013-08-17 06:51:00,
2013-08-17 02:53:00,67.7,59.9,30.19,North,360,0.0,2.0,76,0.00,,,0.00,Wunderground v.1.15,2013-08-17 06:53:00,
2013-08-17 02:55:00,67.6,59.8,30.19,North,360,1.0,3.0,76,0.00,,,0.00,Wunderground v.1.15,2013-08-17 06:55:00,
2013-08-17 02:59:00,67.3,59.8,30.19,North,360,2.0,2.0,77,0.00,,,0.00,Wunderground v.1.15,2013-08-17 06:59:00,
2013-08-17 03:01:00,67.2,59.7,30.19,North,360,2.0,3.0,77,0.00,,,0.00,Wunderground v.1.15,2013-08-17 07:01:00,
2013-08-17 03:03:00,67.1,59.6,30.19,North,360,3.0,3.0,77,0.00,,,0.00,Wunderground v.1.15,2013-08-17 07:03:00,
2013-08-17 03:05:00,67.1,59.6,30.19,North,360,3.0,3.0,77,0.00,,,0.00,Wunderground v.1.15,2013-08-17 07:05:00,
2013-08-17 03:07:00,67.1,59.6,30.19,North,360,3.0,3.0,77,0.00,,,0.00,Wunderground v.1.15,2013-08-17 07:07:00,
2013-08-17 03:09:00,67.1,59.6,30.20,North,360,3.0,3.0,77,0.00,,,0.00,Wunderground v.1.15,2013-08-17 07:09:00,
2013-08-17 03:13:00,67.0,59.5,30.20,North,360,3.0,3.0,77,0.00,,,0.00,Wunderground v.1.15,2013-08-17 07:13:00,
2013-08-17 03:15:00,67.0,59.5,30.19,North,360,2.0,3.0,77,0.00,,,0.00,Wunderground v.1.15,2013-08-17 07:15:00,
2013-08-17 03:17:00,67.1,59.6,30.19,North,360,2.0,3.0,77,0.00,,,0.00,Wunderground v.1.15,2013-08-17 07:17:00,
2013-08-17 03:19:00,67.1,59.6,30.19,North,360,2.0,2.0,77,0.00,,,0.00,Wunderground v.1.15,2013-08-17 07:19:00,
2013-08-17 03:21:00,67.0,59.5,30.19,North,360,1.0,2.0,77,0.00,,,0.00,Wunderground v.1.15,2013-08-17 07:21:00,
2013-08-17 03:24:00,67.0,59.5,30.19,North,360,0.0,2.0,77,0.00,,,0.00,Wunderground v.1.15,2013-08-17 07:24:00,
2013-08-17 03:25:00,67.0,59.5,30.19,North,360,0.0,2.0,77,0.00,,,0.00,Wunderground v.1.15,2013-08-17 07:25:00,
2013-08-17 03:31:00,66.9,59.8,30.19,North,360,0.0,0.0,78,0.00,,,0.00,Wunderground v.1.15,2013-08-17 07:31:00,
2013-08-17 03:33:00,66.8,59.7,30.19,North,360,0.0,3.0,78,0.00,,,0.00,Wunderground v.1.15,2013-08-17 07:33:00,
2013-08-17 03:39:00,66.8,59.7,30.19,North,360,1.0,1.0,78,0.00,,,0.00,Wunderground v.1.15,2013-08-17 07:39:00,
2013-08-17 03:41:00,66.8,59.7,30.19,North,360,1.0,1.0,78,0.00,,,0.00,Wunderground v.1.15,2013-08-17 07:41:00,
2013-08-17 03:43:00,66.8,59.7,30.19,North,360,1.0,1.0,78,0.00,,,0.00,Wunderground v.1.15,2013-08-17 07:43:00,
2013-08-17 03:45:00,66.7,59.6,30.19,North,360,0.0,1.0,78,0.00,,,0.00,Wunderground v.1.15,2013-08-17 07:45:00,
2013-08-17 03:47:00,66.6,59.5,30.19,North,360,0.0,1.0,78,0.00,,,0.00,Wunderground v.1.15,2013-08-17 07:47:00,
2013-08-17 03:54:00,66.5,59.8,30.19,North,360,1.0,2.0,79,0.00,,,0.00,Wunderground v.1.15,2013-08-17 07:54:00,
2013-08-17 03:55:00,66.5,59.8,30.19,North,360,1.0,2.0,79,0.00,,,0.00,Wunderground v.1.15,2013-08-17 07:55:00,
2013-08-17 03:57:00,66.4,59.7,30.19,North,360,1.0,2.0,79,0.00,,,0.00,Wunderground v.1.15,2013-08-17 07:57:00,
2013-08-17 03:59:00,66.2,59.5,30.19,North,360,0.0,0.0,79,0.00,,,0.00,Wunderground v.1.15,2013-08-17 07:59:00,
2013-08-17 04:01:00,66.1,59.7,30.18,North,360,0.0,0.0,80,0.00,,,0.00,Wunderground v.1.15,2013-08-17 08:01:00,
2013-08-17 04:05:00,66.1,59.7,30.19,North,360,0.0,0.0,80,0.00,,,0.00,Wunderground v.1.15,2013-08-17 08:05:00,
2013-08-17 04:07:00,66.0,59.7,30.19,North,360,0.0,0.0,80,0.00,,,0.00,Wunderground v.1.15,2013-08-17 08:07:00,
2013-08-17 04:09:00,65.9,59.6,30.18,North,360,0.0,0.0,80,0.00,,,0.00,Wunderground v.1.15,2013-08-17 08:09:00,
2013-08-17 04:11:00,65.9,59.6,30.19,North,360,0.0,0.0,80,0.00,,,0.00,Wunderground v.1.15,2013-08-17 08:11:00,
2013-08-17 04:13:00,65.8,59.5,30.18,North,360,0.0,0.0,80,0.00,,,0.00,Wunderground v.1.15,2013-08-17 08:13:00,
2013-08-17 04:15:00,65.8,59.5,30.18,North,360,0.0,0.0,80,0.00,,,0.00,Wunderground v.1.15,2013-08-17 08:15:00,
2013-08-17 04:17:00,65.7,59.4,30.18,North,360,0.0,0.0,80,0.00,,,0.00,Wunderground v.1.15,2013-08-17 08:17:00,
2013-08-17 04:19:00,65.7,59.4,30.18,North,360,0.0,0.0,80,0.00,,,0.00,Wunderground v.1.15,2013-08-17 08:19:00,
2013-08-17 04:21:00,65.7,59.4,30.18,North,360,0.0,0.0,80,0.00,,,0.00,Wunderground v.1.15,2013-08-17 08:21:00,
2013-08-17 04:25:00,65.6,59.6,30.18,North,360,0.0,2.0,81,0.00,,,0.00,Wunderground v.1.15,2013-08-17 08:25:00,
2013-08-17 04:27:00,65.6,59.6,30.18,North,360,1.0,2.0,81,0.00,,,0.00,Wunderground v.1.15,2013-08-17 08:27:00,
2013-08-17 04:29:00,65.7,59.7,30.18,North,360,1.0,1.0,81,0.00,,,0.00,Wunderground v.1.15,2013-08-17 08:29:00,
2013-08-17 04:33:00,65.7,59.7,30.19,North,360,0.0,1.0,81,0.00,,,0.00,Wunderground v.1.15,2013-08-17 08:33:00,
2013-08-17 04:35:00,65.6,59.6,30.19,North,360,0.0,1.0,81,0.00,,,0.00,Wunderground v.1.15,2013-08-17 08:35:00,
2013-08-17 04:37:00,65.6,59.6,30.19,North,360,0.0,1.0,81,0.00,,,0.00,Wunderground v.1.15,2013-08-17 08:37:00,
2013-08-17 04:39:00,65.7,59.7,30.19,North,360,0.0,0.0,81,0.00,,,0.00,Wunderground v.1.15,2013-08-17 08:39:00,
2013-08-17 04:41:00,65.6,59.6,30.18,North,360,0.0,0.0,81,0.00,,,0.00,Wunderground v.1.15,2013-08-17 08:41:00,
2013-08-17 04:45:00,65.7,59.7,30.19,North,360,0.0,0.0,81,0.00,,,0.00,Wunderground v.1.15,2013-08-17 08:45:00,
2013-08-17 04:47:00,65.6,59.6,30.19,North,360,0.0,0.0,81,0.00,,,0.00,Wunderground v.1.15,2013-08-17 08:47:00,
2013-08-17 04:51:00,65.4,59.1,30.19,North,360,0.0,0.0,80,0.00,,,0.00,Wunderground v.1.15,2013-08-17 08:51:00,
2013-08-17 04:55:00,65.3,59.3,30.20,North,360,0.0,0.0,81,0.00,,,0.00,Wunderground v.1.15,2013-08-17 08:55:00,
2013-08-17 04:57:00,65.3,59.3,30.20,North,360,0.0,0.0,81,0.00,,,0.00,Wunderground v.1.15,2013-08-17 08:57:00,
2013-08-17 04:59:00,65.3,59.3,30.20,North,360,0.0,0.0,81,0.00,,,0.00,Wunderground v.1.15,2013-08-17 08:59:00,
2013-08-17 05:03:00,65.2,59.2,30.20,North,360,0.0,0.0,81,0.00,,,0.00,Wunderground v.1.15,2013-08-17 09:03:00,
2013-08-17 05:05:00,65.2,59.2,30.20,North,360,0.0,0.0,81,0.00,,,0.00,Wunderground v.1.15,2013-08-17 09:05:00,
2013-08-17 05:07:00,65.2,59.6,30.20,North,360,0.0,0.0,82,0.00,,,0.00,Wunderground v.1.15,2013-08-17 09:07:00,
2013-08-17 05:11:00,65.2,59.6,30.20,North,360,0.0,0.0,82,0.00,,,0.00,Wunderground v.1.15,2013-08-17 09:11:00,
2013-08-17 05:14:00,65.2,59.2,30.20,North,360,0.0,0.0,81,0.00,,,0.00,Wunderground v.1.15,2013-08-17 09:14:00,
2013-08-17 05:15:00,65.3,59.3,30.20,North,360,0.0,0.0,81,0.00,,,0.00,Wunderground v.1.15,2013-08-17 09:15:00,
2013-08-17 05:19:00,65.2,59.2,30.21,North,360,0.0,0.0,81,0.00,,,0.00,Wunderground v.1.15,2013-08-17 09:19:00,
2013-08-17 05:21:00,65.2,59.2,30.21,North,360,0.0,0.0,81,0.00,,,0.00,Wunderground v.1.15,2013-08-17 09:21:00,
2013-08-17 05:23:00,65.2,59.2,30.21,North,360,0.0,0.0,81,0.00,,,0.00,Wunderground v.1.15,2013-08-17 09:23:00,
2013-08-17 05:25:00,65.3,59.7,30.21,North,360,0.0,0.0,82,0.00,,,0.00,Wunderground v.1.15,2013-08-17 09:25:00,
2013-08-17 05:27:00,65.3,59.3,30.21,North,360,0.0,0.0,81,0.00,,,0.00,Wunderground v.1.15,2013-08-17 09:27:00,
2013-08-17 05:29:00,65.3,59.3,30.21,North,360,0.0,0.0,81,0.00,,,0.00,Wunderground v.1.15,2013-08-17 09:29:00,
2013-08-17 05:31:00,65.3,59.3,30.21,North,360,0.0,0.0,81,0.00,,,0.00,Wunderground v.1.15,2013-08-17 09:31:00,
2013-08-17 05:35:00,65.1,59.1,30.21,North,360,1.0,3.0,81,0.00,,,0.00,Wunderground v.1.15,2013-08-17 09:35:00,
2013-08-17 05:37:00,65.1,59.1,30.21,North,360,1.0,3.0,81,0.00,,,0.00,Wunderground v.1.15,2013-08-17 09:37:00,
2013-08-17 05:39:00,65.0,59.0,30.21,North,360,2.0,2.0,81,0.00,,,0.00,Wunderground v.1.15,2013-08-17 09:39:00,
2013-08-17 05:41:00,64.9,58.9,30.21,North,360,2.0,3.0,81,0.00,,,0.00,Wunderground v.1.15,2013-08-17 09:41:00,
2013-08-17 05:44:00,64.8,58.8,30.21,North,360,3.0,3.0,81,0.00,,,0.00,Wunderground v.1.15,2013-08-17 09:44:00,
2013-08-17 05:47:00,64.8,59.2,30.22,North,360,3.0,4.0,82,0.00,,,0.00,Wunderground v.1.15,2013-08-17 09:47:00,
2013-08-17 05:49:00,64.8,58.8,30.21,North,360,3.0,3.0,81,0.00,,,0.00,Wunderground v.1.15,2013-08-17 09:49:00,
2013-08-17 05:55:00,64.9,58.9,30.21,North,360,3.0,3.0,81,0.00,,,0.00,Wunderground v.1.15,2013-08-17 09:55:00,
2013-08-17 05:57:00,64.9,58.9,30.21,North,360,2.0,3.0,81,0.00,,,0.00,Wunderground v.1.15,2013-08-17 09:57:00,
2013-08-17 05:59:00,64.9,58.9,30.22,North,360,2.0,3.0,81,0.00,,,0.00,Wunderground v.1.15,2013-08-17 09:59:00,
2013-08-17 06:05:00,64.8,58.8,30.22,North,360,2.0,3.0,81,0.00,,,0.00,Wunderground v.1.15,2013-08-17 10:05:00,
2013-08-17 06:07:00,64.8,58.8,30.22,North,360,2.0,3.0,81,0.00,,,0.00,Wunderground v.1.15,2013-08-17 10:07:00,
2013-08-17 06:09:00,64.9,58.9,30.21,North,360,2.0,2.0,81,0.00,,,0.00,Wunderground v.1.15,2013-08-17 10:09:00,
2013-08-17 06:11:00,64.9,58.9,30.22,North,360,2.0,2.0,81,0.00,,,0.00,Wunderground v.1.15,2013-08-17 10:11:00,
2013-08-17 06:14:00,65.0,59.0,30.22,North,360,1.0,2.0,81,0.00,,,0.00,Wunderground v.1.15,2013-08-17 10:14:00,
2013-08-17 06:15:00,65.0,59.0,30.22,North,360,1.0,2.0,81,0.00,,,0.00,Wunderground v.1.15,2013-08-17 10:15:00,
2013-08-17 06:19:00,65.0,59.0,30.22,North,360,0.0,0.0,81,0.00,,,0.00,Wunderground v.1.15,2013-08-17 10:19:00,
2013-08-17 06:21:00,64.9,58.9,30.22,North,360,0.0,0.0,81,0.00,,,0.00,Wunderground v.1.15,2013-08-17 10:21:00,
2013-08-17 06:23:00,64.9,58.9,30.22,North,360,0.0,0.0,81,0.00,,,0.00,Wunderground v.1.15,2013-08-17 10:23:00,
2013-08-17 06:25:00,65.0,59.0,30.22,North,360,0.0,0.0,81,0.00,,,0.00,Wunderground v.1.15,2013-08-17 10:25:00,
2013-08-17 06:29:00,64.9,58.9,30.22,North,360,0.0,0.0,81,0.00,,,0.00,Wunderground v.1.15,2013-08-17 10:29:00,
2013-08-17 06:31:00,64.9,58.9,30.22,North,360,0.0,0.0,81,0.00,,,0.00,Wunderground v.1.15,2013-08-17 10:31:00,
2013-08-17 06:33:00,64.9,58.9,30.22,North,360,0.0,0.0,81,0.00,,,0.00,Wunderground v.1.15,2013-08-17 10:33:00,
2013-08-17 06:37:00,64.7,58.7,30.22,North,360,0.0,0.0,81,0.00,,,0.00,Wunderground v.1.15,2013-08-17 10:37:00,
2013-08-17 06:39:00,64.6,58.6,30.22,North,360,0.0,0.0,81,0.00,,,0.00,Wunderground v.1.15,2013-08-17 10:39:00,
2013-08-17 06:44:00,64.7,58.7,30.22,North,360,1.0,2.0,81,0.00,,,0.00,Wunderground v.1.15,2013-08-17 10:44:00,
2013-08-17 06:45:00,64.7,58.7,30.22,North,360,1.0,2.0,81,0.00,,,0.00,Wunderground v.1.15,2013-08-17 10:45:00,
2013-08-17 06:49:00,64.7,58.7,30.22,North,360,1.0,1.0,81,0.00,,,0.00,Wunderground v.1.15,2013-08-17 10:49:00,
2013-08-17 06:53:00,64.7,58.7,30.22,North,360,0.0,1.0,81,0.00,,,0.00,Wunderground v.1.15,2013-08-17 10:53:00,
2013-08-17 06:57:00,64.4,58.4,30.22,North,360,0.0,3.0,81,0.00,,,0.00,Wunderground v.1.15,2013-08-17 10:57:00,
2013-08-17 06:59:00,64.4,58.4,30.22,North,360,0.0,2.0,81,0.00,,,0.00,Wunderground v.1.15,2013-08-17 10:59:00,
2013-08-17 07:01:00,64.3,58.7,30.23,North,360,1.0,2.0,82,0.00,,,0.00,Wunderground v.1.15,2013-08-17 11:01:00,
2013-08-17 07:03:00,64.1,58.5,30.23,North,360,1.0,2.0,82,0.00,,,0.00,Wunderground v.1.15,2013-08-17 11:03:00,
2013-08-17 07:07:00,64.1,58.5,30.23,North,360,1.0,4.0,82,0.00,,,0.00,Wunderground v.1.15,2013-08-17 11:07:00,
2013-08-17 07:09:00,64.1,58.5,30.23,North,360,1.0,1.0,82,0.00,,,0.00,Wunderground v.1.15,2013-08-17 11:09:00,
2013-08-17 07:14:00,64.3,58.7,30.23,North,360,1.0,3.0,82,0.00,,,0.00,Wunderground v.1.15,2013-08-17 11:14:00,
2013-08-17 07:19:00,64.3,58.7,30.23,North,360,1.0,1.0,82,0.00,,,0.00,Wunderground v.1.15,2013-08-17 11:19:00,
2013-08-17 07:21:00,64.5,58.9,30.23,North,360,1.0,1.0,82,0.00,,,0.00,Wunderground v.1.15,2013-08-17 11:21:00,
2013-08-17 07:23:00,64.7,58.7,30.23,North,360,1.0,1.0,81,0.00,,,0.00,Wunderground v.1.15,2013-08-17 11:23:00,
2013-08-17 07:25:00,64.8,58.8,30.23,North,360,1.0,1.0,81,0.00,,,0.00,Wunderground v.1.15,2013-08-17 11:25:00,
2013-08-17 07:27:00,64.8,58.8,30.23,North,360,1.0,2.0,81,0.00,,,0.00,Wunderground v.1.15,2013-08-17 11:27:00,
2013-08-17 07:29:00,64.9,58.9,30.23,North,360,0.0,0.0,81,0.00,,,0.00,Wunderground v.1.15,2013-08-17 11:29:00,
2013-08-17 07:33:00,65.1,58.8,30.23,North,360,0.0,2.0,80,0.00,,,0.00,Wunderground v.1.15,2013-08-17 11:33:00,
2013-08-17 07:35:00,65.2,58.9,30.23,North,360,1.0,2.0,80,0.00,,,0.00,Wunderground v.1.15,2013-08-17 11:35:00,
2013-08-17 07:37:00,65.3,59.0,30.23,North,360,1.0,2.0,80,0.00,,,0.00,Wunderground v.1.15,2013-08-17 11:37:00,
2013-08-17 07:39:00,65.4,59.1,30.23,North,360,1.0,1.0,80,0.00,,,0.00,Wunderground v.1.15,2013-08-17 11:39:00,
2013-08-17 07:41:00,65.5,59.2,30.23,North,360,1.0,1.0,80,0.00,,,0.00,Wunderground v.1.15,2013-08-17 11:41:00,
2013-08-17 07:45:00,65.9,59.2,30.23,North,360,0.0,1.0,79,0.00,,,0.00,Wunderground v.1.15,2013-08-17 11:45:00,
2013-08-17 07:47:00,66.1,59.4,30.24,North,360,0.0,1.0,79,0.00,,,0.00,Wunderground v.1.15,2013-08-17 11:47:00,
2013-08-17 07:51:00,66.3,59.2,30.24,North,360,1.0,4.0,78,0.00,,,0.00,Wunderground v.1.15,2013-08-17 11:51:00,
2013-08-17 07:53:00,66.3,59.2,30.24,North,360,1.0,4.0,78,0.00,,,0.00,Wunderground v.1.15,2013-08-17 11:53:00,
2013-08-17 07:55:00,66.5,59.4,30.24,North,360,1.0,4.0,78,0.00,,,0.00,Wunderground v.1.15,2013-08-17 11:55:00,
2013-08-17 07:59:00,66.6,59.2,30.24,North,360,2.0,6.0,77,0.00,,,0.00,Wunderground v.1.15,2013-08-17 11:59:00,
2013-08-17 08:03:00,66.6,59.2,30.24,North,360,3.0,6.0,77,0.00,,,0.00,Wunderground v.1.15,2013-08-17 12:03:00,
2013-08-17 08:05:00,66.6,59.2,30.24,North,360,4.0,6.0,77,0.00,,,0.00,Wunderground v.1.15,2013-08-17 12:05:00,
2013-08-17 08:07:00,66.7,59.3,30.24,North,360,4.0,6.0,77,0.00,,,0.00,Wunderground v.1.15,2013-08-17 12:07:00,
2013-08-17 08:09:00,66.8,59.4,30.24,North,360,4.0,4.0,77,0.00,,,0.00,Wunderground v.1.15,2013-08-17 12:09:00,
2013-08-17 08:14:00,67.2,59.4,30.24,North,360,3.0,4.0,76,0.00,,,0.00,Wunderground v.1.15,2013-08-17 12:14:00,
2013-08-17 08:15:00,67.4,59.6,30.24,North,360,2.0,4.0,76,0.00,,,0.00,Wunderground v.1.15,2013-08-17 12:15:00,
2013-08-17 08:17:00,67.5,59.7,30.24,North,360,2.0,4.0,76,0.00,,,0.00,Wunderground v.1.15,2013-08-17 12:17:00,
2013-08-17 08:19:00,67.4,59.2,30.24,North,360,1.0,4.0,75,0.00,,,0.00,Wunderground v.1.15,2013-08-17 12:19:00,
2013-08-17 08:21:00,67.2,59.4,30.24,North,360,1.0,4.0,76,0.00,,,0.00,Wunderground v.1.15,2013-08-17 12:21:00,
2013-08-17 08:23:00,67.1,59.3,30.24,North,360,2.0,4.0,76,0.00,,,0.00,Wunderground v.1.15,2013-08-17 12:23:00,
2013-08-17 08:27:00,67.1,59.3,30.24,North,360,3.0,4.0,76,0.00,,,0.00,Wunderground v.1.15,2013-08-17 12:27:00,
2013-08-17 08:29:00,67.2,59.4,30.24,North,360,3.0,3.0,76,0.00,,,0.00,Wunderground v.1.15,2013-08-17 12:29:00,
2013-08-17 08:31:00,67.3,59.5,30.24,North,360,3.0,4.0,76,0.00,,,0.00,Wunderground v.1.15,2013-08-17 12:31:00,
2013-08-17 08:33:00,67.3,59.5,30.24,North,360,3.0,4.0,76,0.00,,,0.00,Wunderground v.1.15,2013-08-17 12:33:00,
2013-08-17 08:35:00,67.3,59.5,30.24,North,360,3.0,4.0,76,0.00,,,0.00,Wunderground v.1.15,2013-08-17 12:35:00,
2013-08-17 08:37:00,67.3,59.5,30.24,North,360,2.0,4.0,76,0.00,,,0.00,Wunderground v.1.15,2013-08-17 12:37:00,
2013-08-17 08:39:00,67.2,59.4,30.24,North,360,3.0,5.0,76,0.00,,,0.00,Wunderground v.1.15,2013-08-17 12:39:00,
2013-08-17 08:41:00,67.1,59.3,30.24,North,360,3.0,5.0,76,0.00,,,0.00,Wunderground v.1.15,2013-08-17 12:41:00,
2013-08-17 08:44:00,67.2,59.4,30.24,North,360,3.0,5.0,76,0.00,,,0.00,Wunderground v.1.15,2013-08-17 12:44:00,
2013-08-17 08:49:00,67.7,59.5,30.24,North,360,3.0,3.0,75,0.00,,,0.00,Wunderground v.1.15,2013-08-17 12:49:00,
2013-08-17 08:51:00,67.9,59.7,30.24,North,360,4.0,7.0,75,0.00,,,0.00,Wunderground v.1.15,2013-08-17 12:51:00,
2013-08-17 08:55:00,68.1,59.5,30.24,North,360,4.0,7.0,74,0.00,,,0.00,Wunderground v.1.15,2013-08-17 12:55:00,
2013-08-17 09:01:00,68.6,60.0,30.24,North,360,4.0,5.0,74,0.00,,,0.00,Wunderground v.1.15,2013-08-17 13:01:00,
2013-08-17 09:03:00,68.8,59.8,30.24,North,360,4.0,5.0,73,0.00,,,0.00,Wunderground v.1.15,2013-08-17 13:03:00,
2013-08-17 09:05:00,68.9,59.9,30.24,North,360,4.0,5.0,73,0.00,,,0.00,Wunderground v.1.15,2013-08-17 13:05:00,
2013-08-17 09:09:00,68.9,59.5,30.24,North,360,4.0,7.0,72,0.00,,,0.00,Wunderground v.1.15,2013-08-17 13:09:00,
2013-08-17 09:11:00,68.7,59.7,30.24,North,360,4.0,7.0,73,0.00,,,0.00,Wunderground v.1.15,2013-08-17 13:11:00,
2013-08-17 09:15:00,68.7,59.7,30.24,North,360,5.0,7.0,73,0.00,,,0.00,Wunderground v.1.15,2013-08-17 13:15:00,
2013-08-17 09:17:00,68.6,59.6,30.24,North,360,5.0,7.0,73,0.00,,,0.00,Wunderground v.1.15,2013-08-17 13:17:00,
2013-08-17 09:19:00,68.7,59.7,30.24,North,360,4.0,7.0,73,0.00,,,0.00,Wunderground v.1.15,2013-08-17 13:19:00,
2013-08-17 09:24:00,68.5,59.5,30.24,North,360,4.0,7.0,73,0.00,,,0.00,Wunderground v.1.15,2013-08-17 13:24:00,
2013-08-17 09:25:00,68.4,59.8,30.24,North,360,5.0,7.0,74,0.00,,,0.00,Wunderground v.1.15,2013-08-17 13:25:00,
2013-08-17 09:27:00,68.4,59.8,30.24,North,360,5.0,7.0,74,0.00,,,0.00,Wunderground v.1.15,2013-08-17 13:27:00,
2013-08-17 09:31:00,68.6,60.4,30.24,North,360,4.0,5.0,75,0.00,,,0.00,Wunderground v.1.15,2013-08-17 13:31:00,
2013-08-17 09:33:00,68.8,60.2,30.25,North,360,3.0,5.0,74,0.00,,,0.00,Wunderground v.1.15,2013-08-17 13:33:00,
2013-08-17 09:37:00,69.0,60.4,30.24,North,360,3.0,5.0,74,0.00,,,0.00,Wunderground v.1.15,2013-08-17 13:37:00,
2013-08-17 09:41:00,69.5,60.5,30.24,North,360,3.0,4.0,73,0.00,,,0.00,Wunderground v.1.15,2013-08-17 13:41:00,
2013-08-17 09:44:00,69.8,60.8,30.24,North,360,3.0,4.0,73,0.00,,,0.00,Wunderground v.1.15,2013-08-17 13:44:00,
2013-08-17 09:45:00,70.0,60.6,30.24,North,360,3.0,4.0,72,0.00,,,0.00,Wunderground v.1.15,2013-08-17 13:45:00,
2013-08-17 09:47:00,70.3,60.8,30.24,North,360,3.0,4.0,72,0.00,,,0.00,Wunderground v.1.15,2013-08-17 13:47:00,
2013-08-17 09:51:00,70.9,61.0,30.25,North,360,3.0,6.0,71,0.00,,,0.00,Wunderground v.1.15,2013-08-17 13:51:00,
2013-08-17 09:53:00,71.0,61.1,30.25,North,360,3.0,6.0,71,0.00,,,0.00,Wunderground v.1.15,2013-08-17 13:53:00,
2013-08-17 09:55:00,71.0,61.1,30.25,North,360,4.0,6.0,71,0.00,,,0.00,Wunderground v.1.15,2013-08-17 13:55:00,
2013-08-17 09:59:00,71.0,60.3,30.24,North,360,5.0,6.0,69,0.00,,,0.00,Wunderground v.1.15,2013-08-17 13:59:00,
2013-08-17 10:03:00,71.3,60.6,30.25,North,360,6.0,11.0,69,0.00,,,0.00,Wunderground v.1.15,2013-08-17 14:03:00,
2013-08-17 10:05:00,71.3,60.6,30.24,North,360,6.0,11.0,69,0.00,,,0.00,Wunderground v.1.15,2013-08-17 14:05:00,
2013-08-17 10:07:00,71.4,60.3,30.24,North,360,6.0,11.0,68,0.00,,,0.00,Wunderground v.1.15,2013-08-17 14:07:00,
2013-08-17 10:09:00,71.7,61.0,30.25,North,360,6.0,7.0,69,0.00,,,0.00,Wunderground v.1.15,2013-08-17 14:09:00,
2013-08-17 10:13:00,72.5,60.9,30.25,North,360,5.0,8.0,67,0.00,,,0.00,Wunderground v.1.15,2013-08-17 14:13:00,
2013-08-17 10:15:00,72.5,60.5,30.25,North,360,6.0,10.0,66,0.00,,,0.00,Wunderground v.1.15,2013-08-17 14:15:00,
2013-08-17 10:17:00,72.5,60.5,30.24,North,360,6.0,10.0,66,0.00,,,0.00,Wunderground v.1.15,2013-08-17 14:17:00,
2013-08-17 10:19:00,72.6,60.2,30.24,North,360,7.0,10.0,65,0.00,,,0.00,Wunderground v.1.15,2013-08-17 14:19:00,
2013-08-17 10:21:00,72.7,59.8,30.24,North,360,8.0,10.0,64,0.00,,,0.00,Wunderground v.1.15,2013-08-17 14:21:00,
2013-08-17 10:27:00,72.9,60.0,30.24,North,360,8.0,10.0,64,0.00,,,0.00,Wunderground v.1.15,2013-08-17 14:27:00,
2013-08-17 10:31:00,73.0,59.7,30.24,North,360,8.0,9.0,63,0.00,,,0.00,Wunderground v.1.15,2013-08-17 14:31:00,
2013-08-17 10:33:00,73.2,59.8,30.24,North,360,8.0,9.0,63,0.00,,,0.00,Wunderground v.1.15,2013-08-17 14:33:00,
2013-08-17 10:37:00,73.1,59.8,30.24,North,360,7.0,9.0,63,0.00,,,0.00,Wunderground v.1.15,2013-08-17 14:37:00,
2013-08-17 10:39:00,73.4,59.6,30.25,North,360,6.0,12.0,62,0.00,,,0.00,Wunderground v.1.15,2013-08-17 14:39:00,
2013-08-17 10:41:00,73.8,60.0,30.25,North,360,7.0,12.0,62,0.00,,,0.00,Wunderground v.1.15,2013-08-17 14:41:00,
2013-08-17 10:44:00,73.9,59.1,30.25,North,360,8.0,12.0,60,0.00,,,0.00,Wunderground v.1.15,2013-08-17 14:44:00,
2013-08-17 10:47:00,73.9,59.1,30.25,North,360,9.0,13.0,60,0.00,,,0.00,Wunderground v.1.15,2013-08-17 14:47:00,
2013-08-17 10:49:00,74.2,59.4,30.25,North,360,9.0,9.0,60,0.00,,,0.00,Wunderground v.1.15,2013-08-17 14:49:00,
2013-08-17 10:51:00,74.5,59.2,30.25,North,360,9.0,12.0,59,0.00,,,0.00,Wunderground v.1.15,2013-08-17 14:51:00,
2013-08-17 10:55:00,74.8,59.5,30.25,North,360,8.0,12.0,59,0.00,,,0.00,Wunderground v.1.15,2013-08-17 14:55:00,
2013-08-17 10:57:00,74.9,59.1,30.25,North,360,8.0,12.0,58,0.00,,,0.00,Wunderground v.1.15,2013-08-17 14:57:00,
2013-08-17 11:01:00,74.5,59.2,30.25,North,360,9.0,11.0,59,0.00,,,0.00,Wunderground v.1.15,2013-08-17 15:01:00,
2013-08-17 11:03:00,74.5,59.2,30.25,North,360,9.0,11.0,59,0.00,,,0.00,Wunderground v.1.15,2013-08-17 15:03:00,
2013-08-17 11:07:00,75.1,58.8,30.25,North,360,9.0,11.0,57,0.00,,,0.00,Wunderground v.1.15,2013-08-17 15:07:00,
2013-08-17 11:11:00,75.7,59.4,30.25,North,360,9.0,11.0,57,0.00,,,0.00,Wunderground v.1.15,2013-08-17 15:11:00,
2013-08-17 11:13:00,75.9,59.6,30.25,North,360,8.0,11.0,57,0.00,,,0.00,Wunderground v.1.15,2013-08-17 15:13:00,
2013-08-17 11:17:00,76.0,58.7,30.25,North,360,8.0,12.0,55,0.00,,,0.00,Wunderground v.1.15,2013-08-17 15:17:00,
2013-08-17 11:21:00,76.1,58.2,30.25,North,360,8.0,10.0,54,0.00,,,0.00,Wunderground v.1.15,2013-08-17 15:21:00,
2013-08-17 11:24:00,76.1,58.8,30.25,North,360,8.0,10.0,55,0.00,,,0.00,Wunderground v.1.15,2013-08-17 15:24:00,
2013-08-17 11:25:00,76.3,58.9,30.25,North,360,9.0,10.0,55,0.00,,,0.00,Wunderground v.1.15,2013-08-17 15:25:00,
2013-08-17 11:27:00,76.2,58.3,30.25,North,360,9.0,12.0,54,0.00,,,0.00,Wunderground v.1.15,2013-08-17 15:27:00,
2013-08-17 11:29:00,75.8,59.0,30.25,North,360,9.0,10.0,56,0.00,,,0.00,Wunderground v.1.15,2013-08-17 15:29:00,
2013-08-17 11:31:00,75.6,58.8,30.25,North,360,10.0,10.0,56,0.00,,,0.00,Wunderground v.1.15,2013-08-17 15:31:00,
2013-08-17 11:35:00,75.4,58.6,30.25,North,360,11.0,13.0,56,0.00,,,0.00,Wunderground v.1.15,2013-08-17 15:35:00,
2013-08-17 11:39:00,75.1,58.8,30.25,North,360,11.0,11.0,57,0.00,,,0.00,Wunderground v.1.15,2013-08-17 15:39:00,
2013-08-17 11:41:00,75.3,59.0,30.25,North,360,10.0,11.0,57,0.00,,,0.00,Wunderground v.1.15,2013-08-17 15:41:00,
2013-08-17 11:43:00,75.5,59.2,30.25,North,360,9.0,14.0,57,0.00,,,0.00,Wunderground v.1.15,2013-08-17 15:43:00,
2013-08-17 11:47:00,75.4,59.1,30.25,North,360,9.0,14.0,57,0.00,,,0.00,Wunderground v.1.15,2013-08-17 15:47:00,
2013-08-17 11:49:00,75.6,59.3,30.24,North,360,9.0,9.0,57,0.00,,,0.00,Wunderground v.1.15,2013-08-17 15:49:00,
2013-08-17 11:51:00,75.8,59.5,30.24,North,360,9.0,9.0,57,0.00,,,0.00,Wunderground v.1.15,2013-08-17 15:51:00,
2013-08-17 11:54:00,75.8,59.0,30.24,North,360,10.0,12.0,56,0.00,,,0.00,Wunderground v.1.15,2013-08-17 15:54:00,
2013-08-17 11:55:00,75.8,58.5,30.24,North,360,9.0,12.0,55,0.00,,,0.00,Wunderground v.1.15,2013-08-17 15:55:00,
2013-08-17 11:57:00,75.5,58.2,30.24,North,360,9.0,12.0,55,0.00,,,0.00,Wunderground v.1.15,2013-08-17 15:57:00,
2013-08-17 11:59:00,75.7,58.4,30.24,North,360,10.0,12.0,55,0.00,,,0.00,Wunderground v.1.15,2013-08-17 15:59:00,
2013-08-17 12:01:00,75.8,59.0,30.24,North,360,10.0,12.0,56,0.00,,,0.00,Wunderground v.1.15,2013-08-17 16:01:00,
2013-08-17 12:03:00,75.9,59.1,30.24,North,360,9.0,12.0,56,0.00,,,0.00,Wunderground v.1.15,2013-08-17 16:03:00,
2013-08-17 12:07:00,76.5,59.1,30.24,North,360,9.0,12.0,55,0.00,,,0.00,Wunderground v.1.15,2013-08-17 16:07:00,
2013-08-17 12:09:00,76.4,59.0,30.24,North,360,9.0,9.0,55,0.00,,,0.00,Wunderground v.1.15,2013-08-17 16:09:00,
2013-08-17 12:13:00,76.4,59.0,30.24,North,360,9.0,11.0,55,0.00,,,0.00,Wunderground v.1.15,2013-08-17 16:13:00,
2013-08-17 12:15:00,76.5,59.1,30.24,North,360,9.0,11.0,55,0.00,,,0.00,Wunderground v.1.15,2013-08-17 16:15:00,
2013-08-17 12:21:00,76.5,58.6,30.24,North,360,10.0,13.0,54,0.00,,,0.00,Wunderground v.1.15,2013-08-17 16:21:00,
2013-08-17 12:23:00,76.5,59.1,30.24,North,360,10.0,13.0,55,0.00,,,0.00,Wunderground v.1.15,2013-08-17 16:23:00,
2013-08-17 12:27:00,76.5,58.6,30.24,North,360,10.0,15.0,54,0.00,,,0.00,Wunderground v.1.15,2013-08-17 16:27:00,
2013-08-17 12:29:00,76.1,58.8,30.24,North,360,10.0,10.0,55,0.00,,,0.00,Wunderground v.1.15,2013-08-17 16:29:00,
2013-08-17 12:31:00,76.0,59.2,30.24,North,360,10.0,10.0,56,0.00,,,0.00,Wunderground v.1.15,2013-08-17 16:31:00,
2013-08-17 12:33:00,76.2,59.4,30.24,North,360,9.0,10.0,56,0.00,,,0.00,Wunderground v.1.15,2013-08-17 16:33:00,
2013-08-17 12:35:00,76.5,59.6,30.24,North,360,9.0,10.0,56,0.00,,,0.00,Wunderground v.1.15,2013-08-17 16:35:00,
2013-08-17 12:39:00,77.2,59.8,30.24,North,360,6.0,11.0,55,0.00,,,0.00,Wunderground v.1.15,2013-08-17 16:39:00,
2013-08-17 12:41:00,77.3,59.9,30.24,North,360,6.0,11.0,55,0.00,,,0.00,Wunderground v.1.15,2013-08-17 16:41:00,
2013-08-17 12:43:00,77.3,59.9,30.24,North,360,6.0,11.0,55,0.00,,,0.00,Wunderground v.1.15,2013-08-17 16:43:00,
2013-08-17 12:45:00,77.5,60.1,30.24,North,360,6.0,11.0,55,0.00,,,0.00,Wunderground v.1.15,2013-08-17 16:45:00,
2013-08-17 12:51:00,77.4,60.0,30.24,North,360,5.0,7.0,55,0.00,,,0.00,Wunderground v.1.15,2013-08-17 16:51:00,
2013-08-17 12:54:00,77.3,59.9,30.23,North,360,5.0,11.0,55,0.00,,,0.00,Wunderground v.1.15,2013-08-17 16:54:00,
2013-08-17 12:55:00,77.2,59.3,30.23,North,360,6.0,11.0,54,0.00,,,0.00,Wunderground v.1.15,2013-08-17 16:55:00,
2013-08-17 12:59:00,77.6,59.6,30.23,North,360,8.0,9.0,54,0.00,,,0.00,Wunderground v.1.15,2013-08-17 16:59:00,
2013-08-17 13:01:00,77.6,59.6,30.24,North,360,8.0,15.0,54,0.00,,,0.00,Wunderground v.1.15,2013-08-17 17:01:00,
2013-08-17 13:03:00,77.4,59.5,30.23,North,360,8.0,15.0,54,0.00,,,0.00,Wunderground v.1.15,2013-08-17 17:03:00,
2013-08-17 13:07:00,77.5,59.5,30.23,North,360,9.0,15.0,54,0.00,,,0.00,Wunderground v.1.15,2013-08-17 17:07:00,
2013-08-17 13:09:00,77.4,58.9,30.23,North,360,9.0,9.0,53,0.00,,,0.00,Wunderground v.1.15,2013-08-17 17:09:00,
2013-08-17 13:11:00,77.5,59.0,30.23,North,360,8.0,9.0,53,0.00,,,0.00,Wunderground v.1.15,2013-08-17 17:11:00,
2013-08-17 13:15:00,77.3,58.8,30.23,North,360,8.0,10.0,53,0.00,,,0.00,Wunderground v.1.15,2013-08-17 17:15:00,
2013-08-17 13:17:00,77.6,59.1,30.23,North,360,8.0,10.0,53,0.00,,,0.00,Wunderground v.1.15,2013-08-17 17:17:00,
2013-08-17 13:19:00,77.8,59.3,30.23,North,360,7.0,7.0,53,0.00,,,0.00,Wunderground v.1.15,2013-08-17 17:19:00,
2013-08-17 13:23:00,77.9,58.9,30.23,North,360,7.0,9.0,52,0.00,,,0.00,Wunderground v.1.15,2013-08-17 17:23:00,
2013-08-17 13:25:00,78.0,57.9,30.23,North,360,6.0,9.0,50,0.00,,,0.00,Wunderground v.1.15,2013-08-17 17:25:00,
2013-08-17 13:27:00,77.8,57.7,30.23,North,360,7.0,12.0,50,0.00,,,0.00,Wunderground v.1.15,2013-08-17 17:27:00,
2013-08-17 13:29:00,77.6,56.9,30.23,North,360,8.0,11.0,49,0.00,,,0.00,Wunderground v.1.15,2013-08-17 17:29:00,
2013-08-17 13:31:00,77.6,58.0,30.23,North,360,9.0,11.0,51,0.00,,,0.00,Wunderground v.1.15,2013-08-17 17:31:00,
2013-08-17 13:35:00,77.6,57.5,30.23,North,360,12.0,12.0,50,0.00,,,0.00,Wunderground v.1.15,2013-08-17 17:35:00,
2013-08-17 13:37:00,77.5,57.4,30.23,North,360,12.0,12.0,50,0.00,,,0.00,Wunderground v.1.15,2013-08-17 17:37:00,
2013-08-17 13:41:00,77.8,57.1,30.23,North,360,11.0,11.0,49,0.00,,,0.00,Wunderground v.1.15,2013-08-17 17:41:00,
2013-08-17 13:44:00,77.8,57.1,30.23,North,360,10.0,12.0,49,0.00,,,0.00,Wunderground v.1.15,2013-08-17 17:44:00,
2013-08-17 13:45:00,77.5,57.4,30.23,North,360,10.0,12.0,50,0.00,,,0.00,Wunderground v.1.15,2013-08-17 17:45:00,
2013-08-17 13:47:00,77.4,57.9,30.22,North,360,9.0,12.0,51,0.00,,,0.00,Wunderground v.1.15,2013-08-17 17:47:00,
2013-08-17 13:53:00,77.3,56.6,30.23,North,360,10.0,12.0,49,0.00,,,0.00,Wunderground v.1.15,2013-08-17 17:53:00,
2013-08-17 13:55:00,77.4,56.7,30.23,North,360,10.0,12.0,49,0.00,,,0.00,Wunderground v.1.15,2013-08-17 17:55:00,
2013-08-17 13:57:00,77.5,57.4,30.23,North,360,9.0,12.0,50,0.00,,,0.00,Wunderground v.1.15,2013-08-17 17:57:00,
2013-08-17 14:01:00,78.0,57.3,30.23,North,360,7.0,9.0,49,0.00,,,0.00,Wunderground v.1.15,2013-08-17 18:01:00,
2013-08-17 14:03:00,78.0,57.3,30.23,North,360,6.0,11.0,49,0.00,,,0.00,Wunderground v.1.15,2013-08-17 18:03:00,
2013-08-17 14:05:00,78.1,57.4,30.23,North,360,7.0,11.0,49,0.00,,,0.00,Wunderground v.1.15,2013-08-17 18:05:00,
2013-08-17 14:11:00,77.8,57.1,30.23,North,360,9.0,11.0,49,0.00,,,0.00,Wunderground v.1.15,2013-08-17 18:11:00,
2013-08-17 14:14:00,77.4,56.7,30.23,North,360,9.0,11.0,49,0.00,,,0.00,Wunderground v.1.15,2013-08-17 18:14:00,
2013-08-17 14:17:00,77.4,57.3,30.23,North,360,8.0,11.0,50,0.00,,,0.00,Wunderground v.1.15,2013-08-17 18:17:00,
2013-08-17 14:19:00,77.3,56.6,30.22,North,360,8.0,8.0,49,0.00,,,0.00,Wunderground v.1.15,2013-08-17 18:19:00,
2013-08-17 14:21:00,77.3,56.6,30.22,North,360,8.0,13.0,49,0.00,,,0.00,Wunderground v.1.15,2013-08-17 18:21:00,
2013-08-17 14:23:00,77.3,57.2,30.22,North,360,8.0,13.0,50,0.00,,,0.00,Wunderground v.1.15,2013-08-17 18:23:00,
2013-08-17 14:25:00,77.3,57.2,30.22,North,360,8.0,13.0,50,0.00,,,0.00,Wunderground v.1.15,2013-08-17 18:25:00,
2013-08-17 14:29:00,77.5,57.4,30.22,North,360,8.0,8.0,50,0.00,,,0.00,Wunderground v.1.15,2013-08-17 18:29:00,
2013-08-17 14:31:00,77.5,57.4,30.22,North,360,8.0,10.0,50,0.00,,,0.00,Wunderground v.1.15,2013-08-17 18:31:00,
2013-08-17 14:34:00,77.6,57.5,30.22,North,360,8.0,10.0,50,0.00,,,0.00,Wunderground v.1.15,2013-08-17 18:34:00,
2013-08-17 14:35:00,77.6,56.9,30.23,North,360,8.0,10.0,49,0.00,,,0.00,Wunderground v.1.15,2013-08-17 18:35:00,
2013-08-17 14:39:00,77.9,57.2,30.23,North,360,7.0,7.0,49,0.00,,,0.00,Wunderground v.1.15,2013-08-17 18:39:00,
2013-08-17 14:41:00,77.9,57.8,30.22,North,360,6.0,7.0,50,0.00,,,0.00,Wunderground v.1.15,2013-08-17 18:41:00,
2013-08-17 14:43:00,78.1,57.9,30.23,North,360,6.0,10.0,50,0.00,,,0.00,Wunderground v.1.15,2013-08-17 18:43:00,
2013-08-17 14:47:00,78.3,57.0,30.22,North,360,6.0,10.0,48,0.00,,,0.00,Wunderground v.1.15,2013-08-17 18:47:00,
2013-08-17 14:49:00,78.0,57.9,30.22,North,360,6.0,6.0,50,0.00,,,0.00,Wunderground v.1.15,2013-08-17 18:49:00,
2013-08-17 14:53:00,78.3,58.1,30.22,North,360,6.0,6.0,50,0.00,,,0.00,Wunderground v.1.15,2013-08-17 18:53:00,
2013-08-17 14:55:00,78.6,58.4,30.22,North,360,6.0,11.0,50,0.00,,,0.00,Wunderground v.1.15,2013-08-17 18:55:00,
2013-08-17 14:59:00,78.7,57.9,30.22,North,360,6.0,9.0,49,0.00,,,0.00,Wunderground v.1.15,2013-08-17 18:59:00,
2013-08-17 15:03:00,78.2,58.0,30.22,North,360,7.0,10.0,50,0.00,,,0.00,Wunderground v.1.15,2013-08-17 19:03:00,
2013-08-17 15:07:00,78.0,58.4,30.22,North,360,8.0,11.0,51,0.00,,,0.00,Wunderground v.1.15,2013-08-17 19:07:00,
2013-08-17 15:11:00,78.0,58.4,30.22,North,360,8.0,9.0,51,0.00,,,0.00,Wunderground v.1.15,2013-08-17 19:11:00,
2013-08-17 15:15:00,78.4,58.8,30.22,North,360,7.0,9.0,51,0.00,,,0.00,Wunderground v.1.15,2013-08-17 19:15:00,
2013-08-17 15:17:00,78.4,58.2,30.22,North,360,7.0,9.0,50,0.00,,,0.00,Wunderground v.1.15,2013-08-17 19:17:00,
2013-08-17 15:19:00,78.3,58.1,30.22,North,360,6.0,6.0,50,0.00,,,0.00,Wunderground v.1.15,2013-08-17 19:19:00,
2013-08-17 15:21:00,78.4,58.2,30.22,North,360,6.0,6.0,50,0.00,,,0.00,Wunderground v.1.15,2013-08-17 19:21:00,
2013-08-17 15:24:00,78.1,58.5,30.21,North,360,6.0,6.0,51,0.00,,,0.00,Wunderground v.1.15,2013-08-17 19:24:00,
2013-08-17 15:25:00,77.9,58.3,30.21,North,360,6.0,6.0,51,0.00,,,0.00,Wunderground v.1.15,2013-08-17 19:25:00,
2013-08-17 15:29:00,78.3,58.7,30.21,North,360,6.0,6.0,51,0.00,,,0.00,Wunderground v.1.15,2013-08-17 19:29:00,
2013-08-17 15:31:00,78.6,59.0,30.21,North,360,5.0,7.0,51,0.00,,,0.00,Wunderground v.1.15,2013-08-17 19:31:00,
2013-08-17 15:33:00,78.5,58.9,30.22,North,360,5.0,7.0,51,0.00,,,0.00,Wunderground v.1.15,2013-08-17 19:33:00,
2013-08-17 15:37:00,78.1,59.0,30.21,North,360,6.0,7.0,52,0.00,,,0.00,Wunderground v.1.15,2013-08-17 19:37:00,
2013-08-17 15:41:00,78.3,59.2,30.21,North,360,6.0,6.0,52,0.00,,,0.00,Wunderground v.1.15,2013-08-17 19:41:00,
2013-08-17 15:43:00,78.3,59.2,30.21,North,360,6.0,7.0,52,0.00,,,0.00,Wunderground v.1.15,2013-08-17 19:43:00,
2013-08-17 15:47:00,78.3,59.2,30.21,North,360,6.0,9.0,52,0.00,,,0.00,Wunderground v.1.15,2013-08-17 19:47:00,
2013-08-17 15:49:00,78.3,59.2,30.21,North,360,6.0,6.0,52,0.00,,,0.00,Wunderground v.1.15,2013-08-17 19:49:00,
2013-08-17 15:54:00,78.0,58.9,30.21,North,360,7.0,11.0,52,0.00,,,0.00,Wunderground v.1.15,2013-08-17 19:54:00,
2013-08-17 15:55:00,78.2,59.1,30.20,North,360,6.0,11.0,52,0.00,,,0.00,Wunderground v.1.15,2013-08-17 19:55:00,
2013-08-17 15:59:00,78.6,59.5,30.20,North,360,7.0,12.0,52,0.00,,,0.00,Wunderground v.1.15,2013-08-17 19:59:00,
2013-08-17 16:03:00,78.6,60.0,30.20,North,360,6.0,12.0,53,0.00,,,0.00,Wunderground v.1.15,2013-08-17 20:03:00,
2013-08-17 16:05:00,78.6,60.0,30.20,North,360,6.0,12.0,53,0.00,,,0.00,Wunderground v.1.15,2013-08-17 20:05:00,
2013-08-17 16:07:00,78.6,60.0,30.20,North,360,6.0,12.0,53,0.00,,,0.00,Wunderground v.1.15,2013-08-17 20:07:00,
2013-08-17 16:09:00,78.6,60.0,30.20,North,360,6.0,7.0,53,0.00,,,0.00,Wunderground v.1.15,2013-08-17 20:09:00,
2013-08-17 16:11:00,78.7,59.6,30.20,North,360,6.0,7.0,52,0.00,,,0.00,Wunderground v.1.15,2013-08-17 20:11:00,
2013-08-17 16:13:00,78.8,59.7,30.20,North,360,6.0,12.0,52,0.00,,,0.00,Wunderground v.1.15,2013-08-17 20:13:00,
2013-08-17 16:15:00,78.7,59.0,30.20,North,360,8.0,12.0,51,0.00,,,0.00,Wunderground v.1.15,2013-08-17 20:15:00,
2013-08-17 16:17:00,78.4,59.3,30.20,North,360,8.0,12.0,52,0.00,,,0.00,Wunderground v.1.15,2013-08-17 20:17:00,
2013-08-17 16:21:00,78.5,59.4,30.20,North,360,8.0,10.0,52,0.00,,,0.00,Wunderground v.1.15,2013-08-17 20:21:00,
2013-08-17 16:24:00,78.2,59.1,30.20,North,360,9.0,10.0,52,0.00,,,0.00,Wunderground v.1.15,2013-08-17 20:24:00,
2013-08-17 16:25:00,78.0,58.9,30.20,North,360,8.0,10.0,52,0.00,,,0.00,Wunderground v.1.15,2013-08-17 20:25:00,
2013-08-17 16:27:00,78.1,59.0,30.20,North,360,7.0,10.0,52,0.00,,,0.00,Wunderground v.1.15,2013-08-17 20:27:00,
2013-08-17 16:29:00,78.2,59.7,30.20,North,360,6.0,8.0,53,0.00,,,0.00,Wunderground v.1.15,2013-08-17 20:29:00,
2013-08-17 16:33:00,78.7,59.6,30.20,North,360,6.0,8.0,52,0.00,,,0.00,Wunderground v.1.15,2013-08-17 20:33:00,
2013-08-17 16:35:00,79.0,59.9,30.20,North,360,6.0,8.0,52,0.00,,,0.00,Wunderground v.1.15,2013-08-17 20:35:00,
2013-08-17 16:37:00,78.8,59.7,30.20,North,360,7.0,9.0,52,0.00,,,0.00,Wunderground v.1.15,2013-08-17 20:37:00,
2013-08-17 16:41:00,78.1,60.1,30.20,North,360,7.0,8.0,54,0.00,,,0.00,Wunderground v.1.15,2013-08-17 20:41:00,
2013-08-17 16:43:00,78.2,60.2,30.20,North,360,8.0,11.0,54,0.00,,,0.00,Wunderground v.1.15,2013-08-17 20:43:00,
2013-08-17 16:47:00,78.1,60.6,30.20,North,360,7.0,11.0,55,0.00,,,0.00,Wunderground v.1.15,2013-08-17 20:47:00,
2013-08-17 16:49:00,78.0,60.0,30.20,North,360,7.0,8.0,54,0.00,,,0.00,Wunderground v.1.15,2013-08-17 20:49:00,
2013-08-17 16:55:00,78.0,60.5,30.20,North,360,7.0,9.0,55,0.00,,,0.00,Wunderground v.1.15,2013-08-17 20:55:00,
2013-08-17 16:57:00,78.2,60.2,30.21,North,360,7.0,9.0,54,0.00,,,0.00,Wunderground v.1.15,2013-08-17 20:57:00,
2013-08-17 17:01:00,78.2,60.2,30.21,North,360,7.0,9.0,54,0.00,,,0.00,Wunderground v.1.15,2013-08-17 21:01:00,
2013-08-17 17:05:00,78.4,60.4,30.21,North,360,7.0,9.0,54,0.00,,,0.00,Wunderground v.1.15,2013-08-17 21:05:00,
2013-08-17 17:07:00,78.4,60.4,30.21,North,360,6.0,9.0,54,0.00,,,0.00,Wunderground v.1.15,2013-08-17 21:07:00,
2013-08-17 17:09:00,78.2,60.2,30.20,North,360,6.0,6.0,54,0.00,,,0.00,Wunderground v.1.15,2013-08-17 21:09:00,
2013-08-17 17:11:00,78.1,60.1,30.21,North,360,6.0,10.0,54,0.00,,,0.00,Wunderground v.1.15,2013-08-17 21:11:00,
2013-08-17 17:15:00,77.8,60.3,30.20,North,360,7.0,10.0,55,0.00,,,0.00,Wunderground v.1.15,2013-08-17 21:15:00,
2013-08-17 17:17:00,78.0,60.5,30.21,North,360,7.0,10.0,55,0.00,,,0.00,Wunderground v.1.15,2013-08-17 21:17:00,
2013-08-17 17:19:00,78.1,60.6,30.21,North,360,7.0,7.0,55,0.00,,,0.00,Wunderground v.1.15,2013-08-17 21:19:00,
2013-08-17 17:21:00,78.2,60.7,30.21,North,360,6.0,9.0,55,0.00,,,0.00,Wunderground v.1.15,2013-08-17 21:21:00,
2013-08-17 17:23:00,78.3,60.8,30.21,North,360,6.0,9.0,55,0.00,,,0.00,Wunderground v.1.15,2013-08-17 21:23:00,
2013-08-17 17:25:00,78.3,60.8,30.21,North,360,5.0,9.0,55,0.00,,,0.00,Wunderground v.1.15,2013-08-17 21:25:00,
2013-08-17 17:27:00,78.4,60.9,30.21,North,360,5.0,9.0,55,0.00,,,0.00,Wunderground v.1.15,2013-08-17 21:27:00,
2013-08-17 17:31:00,78.3,60.8,30.21,North,360,5.0,6.0,55,0.00,,,0.00,Wunderground v.1.15,2013-08-17 21:31:00,
2013-08-17 17:33:00,78.2,60.7,30.20,North,360,5.0,6.0,55,0.00,,,0.00,Wunderground v.1.15,2013-08-17 21:33:00,
2013-08-17 17:35:00,78.3,60.3,30.20,North,360,5.0,6.0,54,0.00,,,0.00,Wunderground v.1.15,2013-08-17 21:35:00,
2013-08-17 17:39:00,78.0,60.5,30.21,North,360,6.0,6.0,55,0.00,,,0.00,Wunderground v.1.15,2013-08-17 21:39:00,
2013-08-17 17:43:00,78.3,60.3,30.20,North,360,7.0,7.0,54,0.00,,,0.00,Wunderground v.1.15,2013-08-17 21:43:00,
2013-08-17 17:49:00,78.1,61.1,30.20,North,360,6.0,8.0,56,0.00,,,0.00,Wunderground v.1.15,2013-08-17 21:49:00,
2013-08-17 17:51:00,78.0,61.5,30.19,North,360,6.0,8.0,57,0.00,,,0.00,Wunderground v.1.15,2013-08-17 21:51:00,
2013-08-17 17:55:00,78.1,60.6,30.20,North,360,6.0,10.0,55,0.00,,,0.00,Wunderground v.1.15,2013-08-17 21:55:00,
2013-08-17 17:57:00,78.0,60.0,30.20,North,360,6.0,10.0,54,0.00,,,0.00,Wunderground v.1.15,2013-08-17 21:57:00,
2013-08-17 17:59:00,77.9,59.9,30.19,North,360,6.0,6.0,54,0.00,,,0.00,Wunderground v.1.15,2013-08-17 21:59:00,
2013-08-17 18:01:00,77.8,59.8,30.20,North,360,6.0,9.0,54,0.00,,,0.00,Wunderground v.1.15,2013-08-17 22:01:00,
2013-08-17 18:07:00,78.0,59.5,30.20,North,360,5.0,10.0,53,0.00,,,0.00,Wunderground v.1.15,2013-08-17 22:07:00,
2013-08-17 18:14:00,78.2,59.7,30.20,North,360,6.0,9.0,53,0.00,,,0.00,Wunderground v.1.15,2013-08-17 22:14:00,
2013-08-17 18:17:00,78.3,59.8,30.20,North,360,7.0,9.0,53,0.00,,,0.00,Wunderground v.1.15,2013-08-17 22:17:00,
2013-08-17 18:19:00,78.3,59.2,30.20,North,360,7.0,7.0,52,0.00,,,0.00,Wunderground v.1.15,2013-08-17 22:19:00,
2013-08-17 18:21:00,78.3,59.8,30.20,North,360,7.0,9.0,53,0.00,,,0.00,Wunderground v.1.15,2013-08-17 22:21:00,
2013-08-17 18:24:00,78.2,59.7,30.20,North,360,7.0,9.0,53,0.00,,,0.00,Wunderground v.1.15,2013-08-17 22:24:00,
2013-08-17 18:25:00,78.1,59.6,30.20,North,360,7.0,9.0,53,0.00,,,0.00,Wunderground v.1.15,2013-08-17 22:25:00,
2013-08-17 18:29:00,78.0,58.9,30.20,North,360,6.0,6.0,52,0.00,,,0.00,Wunderground v.1.15,2013-08-17 22:29:00,
2013-08-17 18:31:00,78.0,58.9,30.20,North,360,6.0,7.0,52,0.00,,,0.00,Wunderground v.1.15,2013-08-17 22:31:00,
2013-08-17 18:37:00,77.6,59.1,30.20,North,360,7.0,8.0,53,0.00,,,0.00,Wunderground v.1.15,2013-08-17 22:37:00,
2013-08-17 18:39:00,77.5,59.0,30.20,North,360,7.0,7.0,53,0.00,,,0.00,Wunderground v.1.15,2013-08-17 22:39:00,
2013-08-17 18:41:00,77.6,59.1,30.20,North,360,7.0,11.0,53,0.00,,,0.00,Wunderground v.1.15,2013-08-17 22:41:00,
2013-08-17 18:44:00,77.7,59.2,30.20,North,360,7.0,11.0,53,0.00,,,0.00,Wunderground v.1.15,2013-08-17 22:44:00,
2013-08-17 18:47:00,77.8,59.3,30.20,North,360,7.0,11.0,53,0.00,,,0.00,Wunderground v.1.15,2013-08-17 22:47:00,
2013-08-17 18:49:00,77.6,59.1,30.20,North,360,7.0,7.0,53,0.00,,,0.00,Wunderground v.1.15,2013-08-17 22:49:00,
2013-08-17 18:53:00,77.4,59.5,30.20,North,360,6.0,7.0,54,0.00,,,0.00,Wunderground v.1.15,2013-08-17 22:53:00,
2013-08-17 18:55:00,77.5,59.5,30.20,North,360,6.0,7.0,54,0.00,,,0.00,Wunderground v.1.15,2013-08-17 22:55:00,
2013-08-17 18:59:00,77.5,59.5,30.20,North,360,5.0,7.0,54,0.00,,,0.00,Wunderground v.1.15,2013-08-17 22:59:00,
2013-08-17 19:01:00,77.5,59.5,30.20,North,360,5.0,7.0,54,0.00,,,0.00,Wunderground v.1.15,2013-08-17 23:01:00,
2013-08-17 19:03:00,77.4,59.5,30.20,North,360,6.0,9.0,54,0.00,,,0.00,Wunderground v.1.15,2013-08-17 23:03:00,
2013-08-17 19:05:00,77.3,59.4,30.20,North,360,6.0,9.0,54,0.00,,,0.00,Wunderground v.1.15,2013-08-17 23:05:00,
2013-08-17 19:07:00,77.2,59.3,30.20,North,360,7.0,9.0,54,0.00,,,0.00,Wunderground v.1.15,2013-08-17 23:07:00,
2013-08-17 19:11:00,77.3,59.4,30.20,North,360,7.0,7.0,54,0.00,,,0.00,Wunderground v.1.15,2013-08-17 23:11:00,
2013-08-17 19:14:00,77.4,59.5,30.20,North,360,6.0,7.0,54,0.00,,,0.00,Wunderground v.1.15,2013-08-17 23:14:00,
2013-08-17 19:15:00,77.3,59.4,30.20,North,360,6.0,7.0,54,0.00,,,0.00,Wunderground v.1.15,2013-08-17 23:15:00,
2013-08-17 19:17:00,77.3,59.9,30.20,North,360,6.0,7.0,55,0.00,,,0.00,Wunderground v.1.15,2013-08-17 23:17:00,
2013-08-17 19:19:00,77.2,59.8,30.20,North,360,5.0,5.0,55,0.00,,,0.00,Wunderground v.1.15,2013-08-17 23:19:00,
2013-08-17 19:21:00,77.2,59.8,30.20,North,360,5.0,5.0,55,0.00,,,0.00,Wunderground v.1.15,2013-08-17 23:21:00,
2013-08-17 19:27:00,77.4,60.0,30.20,North,360,4.0,5.0,55,0.00,,,0.00,Wunderground v.1.15,2013-08-17 23:27:00,
2013-08-17 19:29:00,77.5,60.1,30.20,North,360,4.0,5.0,55,0.00,,,0.00,Wunderground v.1.15,2013-08-17 23:29:00,
2013-08-17 19:31:00,77.5,60.1,30.20,North,360,4.0,5.0,55,0.00,,,0.00,Wunderground v.1.15,2013-08-17 23:31:00,
2013-08-17 19:37:00,77.1,60.2,30.20,North,360,6.0,10.0,56,0.00,,,0.00,Wunderground v.1.15,2013-08-17 23:37:00,
2013-08-17 19:44:00,77.0,60.1,30.21,North,360,6.0,8.0,56,0.00,,,0.00,Wunderground v.1.15,2013-08-17 23:44:00,
2013-08-17 19:45:00,77.1,60.2,30.21,North,360,6.0,8.0,56,0.00,,,0.00,Wunderground v.1.15,2013-08-17 23:45:00,
2013-08-17 19:47:00,77.0,60.6,30.21,North,360,6.0,8.0,57,0.00,,,0.00,Wunderground v.1.15,2013-08-17 23:47:00,
2013-08-17 19:49:00,77.1,60.7,30.21,North,360,5.0,5.0,57,0.00,,,0.00,Wunderground v.1.15,2013-08-17 23:49:00,
2013-08-17 19:53:00,77.0,60.6,30.21,North,360,5.0,7.0,57,0.00,,,0.00,Wunderground v.1.15,2013-08-17 23:53:00,
2013-08-17 19:55:00,76.9,60.5,30.21,North,360,5.0,7.0,57,0.00,,,0.00,Wunderground v.1.15,2013-08-17 23:55:00,
2013-08-17 19:57:00,77.0,60.6,30.21,North,360,4.0,10.0,57,0.00,,,0.00,Wunderground v.1.15,2013-08-17 23:57:00,
2013-08-17 20:03:00,76.9,60.5,30.20,North,360,5.0,7.0,57,0.00,,,0.00,Wunderground v.1.15,2013-08-18 00:03:00,
2013-08-17 20:05:00,77.0,60.6,30.21,North,360,5.0,7.0,57,0.00,,,0.00,Wunderground v.1.15,2013-08-18 00:05:00,
2013-08-17 20:07:00,76.9,60.5,30.20,North,360,5.0,7.0,57,0.00,,,0.00,Wunderground v.1.15,2013-08-18 00:07:00,
2013-08-17 20:11:00,76.9,61.0,30.20,North,360,5.0,5.0,58,0.00,,,0.00,Wunderground v.1.15,2013-08-18 00:11:00,
2013-08-17 20:14:00,76.9,61.0,30.21,North,360,5.0,5.0,58,0.00,,,0.00,Wunderground v.1.15,2013-08-18 00:14:00,
2013-08-17 20:15:00,76.9,61.0,30.21,North,360,4.0,5.0,58,0.00,,,0.00,Wunderground v.1.15,2013-08-18 00:15:00,
2013-08-17 20:19:00,76.8,60.9,30.21,North,360,4.0,4.0,58,0.00,,,0.00,Wunderground v.1.15,2013-08-18 00:19:00,
2013-08-17 20:21:00,76.8,60.9,30.20,North,360,4.0,4.0,58,0.00,,,0.00,Wunderground v.1.15,2013-08-18 00:21:00,
2013-08-17 20:23:00,76.8,60.9,30.20,North,360,4.0,4.0,58,0.00,,,0.00,Wunderground v.1.15,2013-08-18 00:23:00,
2013-08-17 20:27:00,76.6,61.2,30.20,North,360,5.0,8.0,59,0.00,,,0.00,Wunderground v.1.15,2013-08-18 00:27:00,
2013-08-17 20:29:00,76.4,61.0,30.20,North,360,6.0,6.0,59,0.00,,,0.00,Wunderground v.1.15,2013-08-18 00:29:00,
2013-08-17 20:31:00,76.4,61.0,30.20,North,360,5.0,7.0,59,0.00,,,0.00,Wunderground v.1.15,2013-08-18 00:31:00,
2013-08-17 20:35:00,76.3,61.4,30.21,North,360,6.0,7.0,60,0.00,,,0.00,Wunderground v.1.15,2013-08-18 00:35:00,
2013-08-17 20:37:00,76.3,61.4,30.20,North,360,5.0,9.0,60,0.00,,,0.00,Wunderground v.1.15,2013-08-18 00:37:00,
2013-08-17 20:41:00,76.2,61.3,30.21,North,360,5.0,5.0,60,0.00,,,0.00,Wunderground v.1.15,2013-08-18 00:41:00,
2013-08-17 20:44:00,76.1,61.7,30.21,North,360,6.0,7.0,61,0.00,,,0.00,Wunderground v.1.15,2013-08-18 00:44:00,
2013-08-17 20:45:00,76.1,61.7,30.21,North,360,6.0,7.0,61,0.00,,,0.00,Wunderground v.1.15,2013-08-18 00:45:00,
2013-08-17 20:49:00,76.1,61.7,30.21,North,360,6.0,6.0,61,0.00,,,0.00,Wunderground v.1.15,2013-08-18 00:49:00,
2013-08-17 20:51:00,76.1,61.7,30.22,North,360,6.0,7.0,61,0.00,,,0.00,Wunderground v.1.15,2013-08-18 00:51:00,
2013-08-17 20:53:00,76.0,61.6,30.22,North,360,5.0,7.0,61,0.00,,,0.00,Wunderground v.1.15,2013-08-18 00:53:00,
2013-08-17 20:57:00,76.0,61.6,30.22,North,360,5.0,7.0,61,0.00,,,0.00,Wunderground v.1.15,2013-08-18 00:57:00,
2013-08-17 21:01:00,75.8,61.4,30.22,North,360,5.0,10.0,61,0.00,,,0.00,Wunderground v.1.15,2013-08-18 01:01:00,
2013-08-17 21:03:00,75.7,61.3,30.22,North,360,5.0,10.0,61,0.00,,,0.00,Wunderground v.1.15,2013-08-18 01:03:00,
2013-08-17 21:07:00,75.5,61.6,30.22,North,360,5.0,10.0,62,0.00,,,0.00,Wunderground v.1.15,2013-08-18 01:07:00,
2013-08-17 21:09:00,75.5,61.6,30.22,North,360,5.0,5.0,62,0.00,,,0.00,Wunderground v.1.15,2013-08-18 01:09:00,
2013-08-17 21:14:00,75.6,61.7,30.22,North,360,5.0,6.0,62,0.00,,,0.00,Wunderground v.1.15,2013-08-18 01:14:00,
2013-08-17 21:15:00,75.6,61.7,30.22,North,360,4.0,6.0,62,0.00,,,0.00,Wunderground v.1.15,2013-08-18 01:15:00,
2013-08-17 21:17:00,75.7,61.8,30.22,North,360,4.0,6.0,62,0.00,,,0.00,Wunderground v.1.15,2013-08-18 01:17:00,
2013-08-17 21:19:00,75.7,61.3,30.22,North,360,4.0,4.0,61,0.00,,,0.00,Wunderground v.1.15,2013-08-18 01:19:00,
2013-08-17 21:21:00,75.6,61.2,30.22,North,360,4.0,6.0,61,0.00,,,0.00,Wunderground v.1.15,2013-08-18 01:21:00,
2013-08-17 21:23:00,75.6,61.7,30.22,North,360,4.0,6.0,62,0.00,,,0.00,Wunderground v.1.15,2013-08-18 01:23:00,
2013-08-17 21:25:00,75.6,61.7,30.23,North,360,4.0,7.0,62,0.00,,,0.00,Wunderground v.1.15,2013-08-18 01:25:00,
2013-08-17 21:27:00,75.5,61.6,30.23,North,360,5.0,7.0,62,0.00,,,0.00,Wunderground v.1.15,2013-08-18 01:27:00,
2013-08-17 21:29:00,75.5,61.6,30.23,North,360,5.0,8.0,62,0.00,,,0.00,Wunderground v.1.15,2013-08-18 01:29:00,
2013-08-17 21:31:00,75.6,61.7,30.23,North,360,5.0,8.0,62,0.00,,,0.00,Wunderground v.1.15,2013-08-18 01:31:00,
2013-08-17 21:35:00,75.6,61.2,30.23,North,360,5.0,8.0,61,0.00,,,0.00,Wunderground v.1.15,2013-08-18 01:35:00,
2013-08-17 21:37:00,75.6,61.2,30.23,North,360,5.0,8.0,61,0.00,,,0.00,Wunderground v.1.15,2013-08-18 01:37:00,
2013-08-17 21:41:00,75.5,61.1,30.22,North,360,5.0,5.0,61,0.00,,,0.00,Wunderground v.1.15,2013-08-18 01:41:00,
2013-08-17 21:44:00,75.5,61.1,30.22,North,360,5.0,8.0,61,0.00,,,0.00,Wunderground v.1.15,2013-08-18 01:44:00,
2013-08-17 21:45:00,75.4,61.5,30.23,North,360,5.0,8.0,62,0.00,,,0.00,Wunderground v.1.15,2013-08-18 01:45:00,
2013-08-17 21:49:00,75.2,61.3,30.23,North,360,7.0,10.0,62,0.00,,,0.00,Wunderground v.1.15,2013-08-18 01:49:00,
2013-08-17 21:51:00,75.1,61.2,30.23,North,360,7.0,10.0,62,0.00,,,0.00,Wunderground v.1.15,2013-08-18 01:51:00,
2013-08-17 21:55:00,75.1,61.6,30.23,North,360,7.0,10.0,63,0.00,,,0.00,Wunderground v.1.15,2013-08-18 01:55:00,
2013-08-17 21:57:00,75.1,61.2,30.23,North,360,6.0,10.0,62,0.00,,,0.00,Wunderground v.1.15,2013-08-18 01:57:00,
2013-08-17 21:59:00,75.0,61.5,30.23,North,360,6.0,6.0,63,0.00,,,0.00,Wunderground v.1.15,2013-08-18 01:59:00,
2013-08-17 22:01:00,74.9,61.5,30.23,North,360,6.0,6.0,63,0.00,,,0.00,Wunderground v.1.15,2013-08-18 02:01:00,
2013-08-17 22:05:00,74.9,61.5,30.23,North,360,6.0,6.0,63,0.00,,,0.00,Wunderground v.1.15,2013-08-18 02:05:00,
2013-08-17 22:07:00,74.8,61.4,30.23,North,360,6.0,10.0,63,0.00,,,0.00,Wunderground v.1.15,2013-08-18 02:07:00,
2013-08-17 22:09:00,74.7,61.3,30.22,North,360,6.0,6.0,63,0.00,,,0.00,Wunderground v.1.15,2013-08-18 02:09:00,
2013-08-17 22:11:00,74.6,61.2,30.23,North,360,6.0,6.0,63,0.00,,,0.00,Wunderground v.1.15,2013-08-18 02:11:00,
2013-08-17 22:14:00,74.7,61.3,30.23,North,360,6.0,6.0,63,0.00,,,0.00,Wunderground v.1.15,2013-08-18 02:14:00,
2013-08-17 22:15:00,74.7,61.3,30.23,North,360,6.0,6.0,63,0.00,,,0.00,Wunderground v.1.15,2013-08-18 02:15:00,
2013-08-17 22:17:00,74.6,61.2,30.23,North,360,6.0,6.0,63,0.00,,,0.00,Wunderground v.1.15,2013-08-18 02:17:00,
2013-08-17 22:21:00,74.4,61.4,30.23,North,360,5.0,6.0,64,0.00,,,0.00,Wunderground v.1.15,2013-08-18 02:21:00,
2013-08-17 22:23:00,74.4,61.4,30.22,North,360,5.0,6.0,64,0.00,,,0.00,Wunderground v.1.15,2013-08-18 02:23:00,
2013-08-17 22:25:00,74.3,61.8,30.22,North,360,5.0,6.0,65,0.00,,,0.00,Wunderground v.1.15,2013-08-18 02:25:00,
2013-08-17 22:27:00,74.3,61.8,30.22,North,360,5.0,6.0,65,0.00,,,0.00,Wunderground v.1.15,2013-08-18 02:27:00,
2013-08-17 22:31:00,74.2,62.1,30.22,North,360,6.0,6.0,66,0.00,,,0.00,Wunderground v.1.15,2013-08-18 02:31:00,
2013-08-17 22:33:00,74.3,62.2,30.22,North,360,6.0,6.0,66,0.00,,,0.00,Wunderground v.1.15,2013-08-18 02:33:00,
2013-08-17 22:37:00,74.2,62.1,30.22,North,360,5.0,8.0,66,0.00,,,0.00,Wunderground v.1.15,2013-08-18 02:37:00,
2013-08-17 22:39:00,74.2,62.1,30.22,North,360,5.0,5.0,66,0.00,,,0.00,Wunderground v.1.15,2013-08-18 02:39:00,
2013-08-17 22:44:00,73.9,62.2,30.22,North,360,5.0,6.0,67,0.00,,,0.00,Wunderground v.1.15,2013-08-18 02:44:00,
2013-08-17 22:47:00,74.0,62.8,30.22,North,360,5.0,6.0,68,0.00,,,0.00,Wunderground v.1.15,2013-08-18 02:47:00,
2013-08-17 22:49:00,74.0,62.8,30.22,North,360,5.0,5.0,68,0.00,,,0.00,Wunderground v.1.15,2013-08-18 02:49:00,
2013-08-17 22:51:00,73.9,62.7,30.22,North,360,5.0,5.0,68,0.00,,,0.00,Wunderground v.1.15,2013-08-18 02:51:00,
2013-08-17 22:53:00,73.8,62.6,30.22,North,360,5.0,6.0,68,0.00,,,0.00,Wunderground v.1.15,2013-08-18 02:53:00,
2013-08-17 22:55:00,73.8,63.0,30.22,North,360,5.0,6.0,69,0.00,,,0.00,Wunderground v.1.15,2013-08-18 02:55:00,
2013-08-17 22:59:00,73.8,63.0,30.22,North,360,6.0,6.0,69,0.00,,,0.00,Wunderground v.1.15,2013-08-18 02:59:00,
2013-08-17 23:01:00,73.7,62.9,30.22,North,360,5.0,6.0,69,0.00,,,0.00,Wunderground v.1.15,2013-08-18 03:01:00,
2013-08-17 23:03:00,73.7,63.3,30.22,North,360,5.0,6.0,70,0.00,,,0.00,Wunderground v.1.15,2013-08-18 03:03:00,
2013-08-17 23:07:00,73.5,63.1,30.22,North,360,5.0,9.0,70,0.00,,,0.00,Wunderground v.1.15,2013-08-18 03:07:00,
2013-08-17 23:09:00,73.4,63.4,30.22,North,360,5.0,5.0,71,0.00,,,0.00,Wunderground v.1.15,2013-08-18 03:09:00,
2013-08-17 23:11:00,73.4,63.4,30.22,North,360,5.0,6.0,71,0.00,,,0.00,Wunderground v.1.15,2013-08-18 03:11:00,
2013-08-17 23:13:00,73.4,63.8,30.22,North,360,6.0,8.0,72,0.00,,,0.00,Wunderground v.1.15,2013-08-18 03:13:00,
2013-08-17 23:19:00,73.1,63.9,30.22,North,360,7.0,7.0,73,0.00,,,0.00,Wunderground v.1.15,2013-08-18 03:19:00,
2013-08-17 23:23:00,73.0,63.8,30.22,North,360,7.0,7.0,73,0.00,,,0.00,Wunderground v.1.15,2013-08-18 03:23:00,
2013-08-17 23:25:00,73.1,63.9,30.22,North,360,7.0,7.0,73,0.00,,,0.00,Wunderground v.1.15,2013-08-18 03:25:00,
2013-08-17 23:29:00,73.1,63.9,30.22,North,360,6.0,6.0,73,0.00,,,0.00,Wunderground v.1.15,2013-08-18 03:29:00,
2013-08-17 23:31:00,73.0,63.8,30.21,North,360,6.0,7.0,73,0.00,,,0.00,Wunderground v.1.15,2013-08-18 03:31:00,
2013-08-17 23:35:00,73.0,64.2,30.21,North,360,5.0,7.0,74,0.00,,,0.00,Wunderground v.1.15,2013-08-18 03:35:00,
2013-08-17 23:39:00,73.0,64.2,30.21,North,360,5.0,5.0,74,0.00,,,0.00,Wunderground v.1.15,2013-08-18 03:39:00,
2013-08-17 23:41:00,73.0,64.2,30.21,North,360,4.0,5.0,74,0.00,,,0.00,Wunderground v.1.15,2013-08-18 03:41:00,
2013-08-17 23:44:00,72.9,64.1,30.21,North,360,5.0,5.0,74,0.00,,,0.00,Wunderground v.1.15,2013-08-18 03:44:00,
2013-08-17 23:47:00,72.7,63.9,30.21,North,360,5.0,9.0,74,0.00,,,0.00,Wunderground v.1.15,2013-08-18 03:47:00,
2013-08-17 23:49:00,72.6,64.2,30.21,North,360,5.0,7.0,75,0.00,,,0.00,Wunderground v.1.15,2013-08-18 03:49:00,
2013-08-17 23:55:00,72.6,64.2,30.21,North,360,5.0,7.0,75,0.00,,,0.00,Wunderground v.1.15,2013-08-18 03:55:00,
2013-08-17 23:57:00,72.6,64.2,30.20,North,360,5.0,7.0,75,0.00,,,0.00,Wunderground v.1.15,2013-08-18 03:57:00,
2013-08-17 23:59:00,72.6,64.2,30.20,North,360,5.0,5.0,75,0.00,,,0.00,Wunderground v.1.15,2013-08-18 03:59:00,